Weather reports worldwide

Advertisment
Aboyne, United Kingdom (3080): temperature & dewpoint: 10.06.2019 12:00:00 - 16.06.2019 12:00:00 (BST)Aboyne, United Kingdom (3080): temperature -20cm & temperature -100cm: 10.06.2019 12:00:00 - 16.06.2019 12:00:00 (BST)Aboyne, United Kingdom (3080): wind speed: 10.06.2019 12:00:00 - 16.06.2019 12:00:00 (BST)Aboyne, United Kingdom (3080): wind direction: 10.06.2019 12:00:00 - 16.06.2019 12:00:00 (BST)Aboyne, United Kingdom (3080): reduced air pressure: 10.06.2019 12:00:00 - 16.06.2019 12:00:00 (BST)Aboyne, United Kingdom (3080): visibility: 10.06.2019 12:00:00 - 16.06.2019 12:00:00 (BST)Aboyne, United Kingdom (3080): precipitation: 10.06.2019 12:00:00 - 16.06.2019 12:00:00 (BST)
Date & Time tt [°C] td [°C] tt -20cm [°C] tt -100cm [°C] ff [km/h] ff [kn] dd ppp [hPa] vv [km] rr [mm]
16.06.2019 12:00:00 14,3 6,2 - - 18 10 SSW 1008,1 40 0,0
16.06.2019 11:00:00 14,9 7,0 - - 18 10 SSW 1007,8 35 0,0
16.06.2019 10:00:00 13,8 6,1 12,7 11,4 22 12 SW 1007,9 40 0,0
16.06.2019 09:00:00 12,5 6,5 - - 15 8 SSW 1007,9 50 0,0
16.06.2019 08:00:00 12,6 8,2 - - 8 4 WSW 1007,6 50 0,0
16.06.2019 07:00:00 10,9 9,9 - - 2 1 SSW 1007,5 50 0,0
16.06.2019 06:00:00 7,5 7,5 - - 9 5 ENE 1007,6 18 0,0
16.06.2019 05:00:00 5,7 5,5 - - 2 1 NNE 1007,8 5 0,0
16.06.2019 04:00:00 5,4 4,6 - - 4 2 ESE 1008,1 0,2 0,0
16.06.2019 03:00:00 8,1 7,3 - - 4 2 E 1007,9 11 0,0
16.06.2019 02:00:00 9,7 8,8 - - 4 2 E 1007,8 15 0,4
16.06.2019 01:00:00 11,0 8,9 - - 5 3 NE 1007,9 16 0,0
16.06.2019 00:00:00 11,1 10,0 - - 8 4 E 1008,4 14 0,0
15.06.2019 23:00:00 11,8 9,9 - - 11 6 E 1008,5 26 0,0
15.06.2019 22:00:00 12,2 10,0 - - 9 5 E 1008,3 27 0,0
15.06.2019 21:00:00 13,3 9,6 - - 9 5 SSE 1008,1 25 0,0
15.06.2019 20:00:00 14,3 10,4 - - 15 8 ESE 1008,1 30 0,0
15.06.2019 19:00:00 14,5 8,7 - - 13 7 ESE 1008,2 30 0,0
15.06.2019 18:00:00 15,3 8,1 - - 18 10 SE 1008,5 40 0,0
15.06.2019 17:00:00 16,8 7,8 - - 16 9 SE 1008,5 45 0,0
15.06.2019 16:00:00 15,8 8,7 - - 16 9 SE 1008,8 30 0,0
15.06.2019 15:00:00 16,5 7,7 - - 22 12 SE 1008,6 45 0,0
15.06.2019 14:00:00 15,8 9,6 - - 21 11 E 1008,9 40 0,0
15.06.2019 13:00:00 15,0 11,0 - - 18 10 ESE 1009,1 40 0,0
15.06.2019 12:00:00 14,9 9,5 - - 22 12 ESE 1009,1 45 0,0
15.06.2019 11:00:00 13,0 11,4 - - 13 7 E 1009,1 40 0,0
15.06.2019 10:00:00 11,4 11,2 12,4 11,2 11 6 ENE 1009,5 11 0,0
15.06.2019 09:00:00 10,3 9,8 - - 5 3 ESE 1009,5 2,4 0,6
15.06.2019 08:00:00 10,5 9,5 - - 8 4 E 1009,7 28 0,0
15.06.2019 07:00:00 8,6 8,5 - - 4 2 WSW 1009,9 17 0,0
15.06.2019 06:00:00 6,7 6,6 - - 4 2 NW 1009,8 13 0,0
15.06.2019 05:00:00 6,2 6,0 - - 4 2 W 1010,3 12 0,0
15.06.2019 04:00:00 5,7 5,5 - - 4 2 ESE 1010,5 12 0,0
15.06.2019 03:00:00 5,5 5,3 - - 4 2 NNW 1010,5 15 0,0
15.06.2019 02:00:00 4,7 4,4 - - 2 1 WNW 1010,4 10 0,0
15.06.2019 01:00:00 4,9 4,1 - - 2 1 SSE 1010,4 13 0,0
15.06.2019 00:00:00 6,0 4,9 - - 5 3 E 1010,3 15 0,0
14.06.2019 23:00:00 8,8 6,9 - - 9 5 ENE 1009,7 50 0,0
14.06.2019 22:00:00 9,2 6,9 - - 9 5 ENE 1008,9 45 0,0
14.06.2019 21:00:00 10,6 6,7 - - 8 4 SSE 1008,3 50 0,0
14.06.2019 20:00:00 12,2 7,3 - - 9 5 SSE 1007,6 45 0,0
14.06.2019 19:00:00 12,3 6,9 - - 18 10 SE 1007,2 40 0,0
14.06.2019 18:00:00 11,7 7,5 - - 21 11 ESE 1006,9 45 0,2
14.06.2019 17:00:00 12,7 6,1 - - 18 10 SE 1006,2 26 0,0
14.06.2019 16:00:00 13,3 7,2 - - 21 11 SE 1005,8 35 0,0
14.06.2019 15:00:00 13,0 6,9 - - 18 10 SSE 1005,5 45 0,0
14.06.2019 14:00:00 11,6 6,2 - - 21 11 SSE 1005,4 35 0,0
14.06.2019 13:00:00 12,6 6,6 - - 15 8 SSE 1004,7 35 0,0
14.06.2019 12:00:00 13,0 5,7 - - 22 12 S 1004,3 45 0,0
14.06.2019 11:00:00 12,1 5,7 - - 13 7 S 1004,1 40 0,0
14.06.2019 10:00:00 11,1 5,2 12,0 11,2 16 9 S 1003,8 40 0,0
14.06.2019 09:00:00 9,7 5,5 - - 9 5 SSW 1003,3 45 0,0
14.06.2019 08:00:00 9,3 5,8 - - 13 7 S 1002,8 40 0,0
14.06.2019 07:00:00 8,5 5,7 - - 11 6 ESE 1002,6 40 0,0
14.06.2019 06:00:00 7,8 7,0 - - 9 5 E 1002,0 40 0,0
14.06.2019 05:00:00 6,6 6,4 - - 9 5 SE 1001,8 50 0,0
14.06.2019 04:00:00 4,8 4,5 - - 5 3 E 1001,8 9 0,0
14.06.2019 03:00:00 5,5 4,9 - - 2 1 ENE 1001,6 17 0,0
14.06.2019 02:00:00 6,8 6,2 - - 4 2 E 1001,5 50 0,0
14.06.2019 01:00:00 6,8 6,2 - - 2 1 SW 1001,6 50 0,0
14.06.2019 00:00:00 6,8 6,2 - - 5 3 WNW 1001,4 50 0,2
13.06.2019 23:00:00 7,2 6,3 - - 8 4 NW 1001,3 28 0,0
13.06.2019 22:00:00 7,5 6,6 - - 5 3 WNW 1001,2 19 0,2
13.06.2019 21:00:00 7,8 6,8 - - 8 4 W 1000,9 28 0,2
13.06.2019 20:00:00 8,0 6,8 - - 9 5 W 1000,9 19 0,4
13.06.2019 19:00:00 8,3 7,0 - - 11 6 W 1000,9 15 0,2
13.06.2019 18:00:00 8,3 6,8 - - 15 8 W 1001,2 14 0,4
13.06.2019 17:00:00 8,3 6,7 - - 15 8 W 1001,6 40 0,2
13.06.2019 16:00:00 7,9 6,3 - - 15 8 WNW 1002,2 30 0,4
13.06.2019 15:00:00 8,0 6,0 - - 16 9 WNW 1002,7 35 0,4
13.06.2019 14:00:00 8,2 6,1 - - 15 8 NW 1003,5 35 0,0
13.06.2019 13:00:00 7,5 5,7 - - 13 7 NW 1004,5 22 0,2
13.06.2019 12:00:00 7,1 5,5 - - 16 9 NW 1005,3 22 0,2
13.06.2019 11:00:00 6,6 5,4 - - 16 9 WNW 1005,9 18 0,4
13.06.2019 10:00:00 7,0 4,9 12,4 11,4 15 8 NW 1006,7 17 0,0
13.06.2019 09:00:00 6,7 4,9 - - 16 9 NW 1007,5 45 0,0
13.06.2019 08:00:00 6,9 4,6 - - 16 9 N 1008,3 35 0,0
13.06.2019 07:00:00 6,9 4,8 - - 15 8 NNW 1008,7 40 0,0
13.06.2019 06:00:00 6,4 5,1 - - 11 6 WNW 1009,8 7 0,0
13.06.2019 05:00:00 6,6 5,1 - - 13 7 NNW 1010,6 24 0,0
13.06.2019 04:00:00 6,9 5,4 - - 15 8 NNW 1011,2 30 0,0
13.06.2019 03:00:00 7,2 5,8 - - 15 8 N 1012,1 11 0,0
13.06.2019 02:00:00 7,3 6,1 - - 21 11 NNW 1013,0 9 0,2
13.06.2019 01:00:00 7,7 6,4 - - 24 13 NNW 1014,1 18 0,0
13.06.2019 00:00:00 7,9 6,9 - - 11 6 NNW 1015,3 5 0,0
12.06.2019 23:00:00 8,3 7,1 - - 15 8 N 1016,2 8 0,2
12.06.2019 22:00:00 8,5 7,6 - - 13 7 NW 1016,8 11 0,0
12.06.2019 21:00:00 8,7 7,7 - - 13 7 NNW 1017,3 9 0,2
12.06.2019 20:00:00 9,0 7,8 - - 11 6 NNW 1017,3 11 0,0
12.06.2019 19:00:00 9,2 8,1 - - 15 8 NNW 1017,1 13 0,4
12.06.2019 18:00:00 9,3 8,3 - - 13 7 NNW 1017,7 9 0,4
12.06.2019 17:00:00 9,4 8,3 - - 15 8 NNW 1018,0 9 0,2
12.06.2019 16:00:00 9,7 8,4 - - 18 10 NNW 1018,3 14 0,2
12.06.2019 15:00:00 9,5 7,9 - - 21 11 NNW 1018,7 10 0,0
12.06.2019 14:00:00 9,7 7,3 - - 21 11 NNW 1019,3 20 0,0
12.06.2019 13:00:00 9,7 7,3 - - 16 9 N 1019,9 17 0,0
12.06.2019 12:00:00 9,4 7,1 - - 18 10 N 1020,0 17 0,0
12.06.2019 11:00:00 9,6 7,0 - - 22 12 NNW 1019,7 23 0,0
12.06.2019 10:00:00 9,0 7,3 12,9 11,2 21 11 NNW 1020,1 8 0,0
12.06.2019 09:00:00 8,7 6,8 - - 16 9 NNW 1020,6 13 0,0
12.06.2019 08:00:00 8,7 6,5 - - 15 8 N 1021,2 12 0,0
12.06.2019 07:00:00 8,6 6,4 - - 21 11 NNW 1021,0 21 0,0
12.06.2019 06:00:00 8,5 6,6 - - 9 5 NNW 1021,7 17 0,0
12.06.2019 05:00:00 8,7 6,7 - - 15 8 NW 1021,2 22 0,0
12.06.2019 04:00:00 9,1 7,0 - - 15 8 NNW 1021,4 11 0,0
12.06.2019 03:00:00 9,4 6,7 - - 13 7 N 1022,1 14 0,0
12.06.2019 02:00:00 9,4 6,9 - - 9 5 NW 1022,4 22 0,0
12.06.2019 01:00:00 9,0 6,9 - - 9 5 W 1022,8 30 0,0
12.06.2019 00:00:00 8,7 5,8 - - 8 4 NW 1023,2 50 0,0
11.06.2019 23:00:00 9,1 6,6 - - 8 4 N 1023,5 45 0,0
11.06.2019 22:00:00 9,3 7,2 - - 9 5 N 1023,3 40 0,0
11.06.2019 21:00:00 9,3 7,8 - - 8 4 NNE 1023,0 14 0,0
11.06.2019 20:00:00 9,5 8,2 - - 5 3 NNW 1022,7 10 0,2
11.06.2019 19:00:00 10,1 7,8 - - 13 7 NNW 1022,5 12 0,0
11.06.2019 18:00:00 10,6 8,8 - - 9 5 NNW 1022,5 18 0,0
11.06.2019 17:00:00 11,9 7,4 - - 15 8 N 1022,7 40 0,0
11.06.2019 16:00:00 12,2 6,6 - - 16 9 NNW 1022,8 40 0,0
11.06.2019 15:00:00 11,7 8,1 - - 15 8 N 1023,1 12 0,0
11.06.2019 14:00:00 13,2 9,1 - - 15 8 N 1023,2 40 0,0
11.06.2019 13:00:00 11,4 7,4 - - 15 8 N 1023,2 17 0,2
11.06.2019 12:00:00 12,3 8,1 - - 15 8 N 1023,1 30 0,0
11.06.2019 11:00:00 10,3 6,7 - - 21 11 NNW 1023,4 35 0,0
11.06.2019 10:00:00 10,2 5,6 12,9 11,2 15 8 N 1023,5 40 0,0
11.06.2019 09:00:00 8,8 5,1 - - 13 7 NNW 1024,1 45 0,0
11.06.2019 08:00:00 8,8 5,3 - - 11 6 NW 1024,1 45 0,0
11.06.2019 07:00:00 7,9 5,3 - - 11 6 N 1024,3 30 0,0
11.06.2019 06:00:00 7,8 6,5 - - 9 5 NNW 1024,1 23 0,0
11.06.2019 05:00:00 7,8 6,8 - - 4 2 W 1023,6 45 0,0
11.06.2019 04:00:00 7,7 7,1 - - 0 0 N 1023,5 22 0,0
11.06.2019 03:00:00 7,6 6,8 - - 2 1 W 1023,7 40 0,0
11.06.2019 02:00:00 8,0 7,2 - - 2 1 W 1023,5 40 0,0
11.06.2019 01:00:00 8,1 7,4 - - 2 1 W 1023,4 50 0,0
11.06.2019 00:00:00 8,2 7,0 - - 2 1 W 1023,6 45 0,0
10.06.2019 23:00:00 9,3 7,6 - - 5 3 ENE 1023,6 50 0,0
10.06.2019 22:00:00 9,5 8,6 - - 2 1 ENE 1023,5 45 0,0
10.06.2019 21:00:00 10,1 8,3 - - 5 3 ENE 1022,6 40 0,0
10.06.2019 20:00:00 11,0 8,8 - - 8 4 E 1022,2 45 0,0
10.06.2019 19:00:00 11,0 8,9 - - 4 2 E 1022,1 40 0,0
10.06.2019 18:00:00 11,2 8,6 - - 11 6 ESE 1021,8 50 0,0
10.06.2019 17:00:00 11,0 9,2 - - 11 6 E 1021,8 19 0,0
10.06.2019 16:00:00 11,6 9,3 - - 13 7 E 1021,2 40 0,2
10.06.2019 15:00:00 10,9 9,5 - - 11 6 E 1021,3 13 0,0
10.06.2019 14:00:00 10,7 9,1 - - 9 5 S 1021,2 30 1,2
10.06.2019 13:00:00 12,6 9,4 - - 16 9 SE 1020,6 45 0,0
10.06.2019 12:00:00 11,6 9,1 - - 9 5 N 1020,5 50 0,0

tt = temperature
td = dewpoint
tt -20cm = temperature -20cm
tt -100cm = temperature -100cm
ff = wind speed
dd = wind direction
ppp = reduced air pressure
vv = visibility
rr = precipitation

Next stations